Back to catalog

STARLINK-32711

AliveCommunicationsVLEO
NORAD 62435·PAYLOAD·🇺🇸 United States

Launched Dec 29, 2024 from Vandenberg Space Force Base

Loading…

Next Passes (next 24 hours)

TLE

FreshSource: CelesTrak SupGP

Epoch: Sep 14, 2026, 15:14 UTC

1 62435C 24251D   26257.63520833  .00064850  00000+0  19167-2 0  2571
2 62435  53.1574 176.9058 0001259  92.4900  51.0254 15.34345951    12

Track STARLINK-32711 in real time with AllMySat

Download on the App Store